{"data":{"norad_id":67547,"epoch":"2026-05-25T03:19:25.191264Z","epoch_age_seconds":63315,"freshness":"FRESH","line1":"1 67547U 26014R   26145.13848601  .00018123  00000+0  56224-3 0  9997","line2":"2 67547  97.2882  32.2519 0001264  89.2227 270.9161 15.33450844 20502","mean_motion":15.33450844,"eccentricity":0.0001264,"inclination_deg":97.2882,"raan_deg":32.2519,"arg_perigee_deg":89.2227,"mean_anomaly_deg":270.9161,"bstar":0.00056224,"rev_number":2050,"period_min":93.905846779135,"perigee_km":464.66074792469,"apogee_km":466.39082587722,"semimajor_km":6843.662786901,"source":"CELESTRAK","updated_at":"2026-05-25T13:38:21.609796Z"}}